This is the latest recevied weather packets stored in our database for station/object VK3ANZ. If no packets are shown the sender has not sent any weather packets the latest 10 day(s).
| Time | Temp. | Humidity | Pressure | Rain* | Wind** | Luminosity | Snow |
|---|---|---|---|---|---|---|---|
| 1777862129 | 17.78° C | 22% | 1012.1 hPa | 0 mm | - | 250 W/m² | - |
| 1777859750 | 17.22° C | 23% | 1012.4 hPa | 0 mm | - | 307 W/m² | - |
| 1777858530 | 17.22° C | 22% | 1012.5 hPa | 0 mm | - | 334 W/m² | - |
| 1777857921 | 16.67° C | 22% | 1012.7 hPa | 0 mm | - | 317 W/m² | - |
| 1777856768 | 17.22° C | 25% | 1012.8 hPa | 0 mm | - | 109 W/m² | - |
| 1777853141 | 16.67° C | 27% | 1012.9 hPa | 0 mm | - | 317 W/m² | - |
| 1777851329 | 16.11° C | 29% | 1013.2 hPa | 0 mm | - | 278 W/m² | - |
| 1777848929 | 15° C | 30% | 1013.3 hPa | 0 mm | - | 242 W/m² | - |
| 1777839920 | 12.22° C | 42% | 1012.8 hPa | 0 mm | - | 0 W/m² | - |
| 1777833946 | 10.56° C | 80% | 1013.2 hPa | 0 mm | - | 0 W/m² | - |
| 1777833330 | 10° C | 77% | 1013.3 hPa | 0 mm | - | 0 W/m² | - |
| 1777829120 | 10.56° C | 64% | 1013.7 hPa | 0 mm | - | 0 W/m² | - |
| 1777827922 | 11.11° C | 51% | 1013.6 hPa | 0 mm | - | 0 W/m² | - |
| 1777823722 | 12.22° C | 44% | 1013.8 hPa | 0 mm | - | 0 W/m² | - |
| 1777823120 | 12.22° C | 45% | 1013.9 hPa | 0 mm | - | 0 W/m² | - |
| 1777821328 | 11.67° C | 49% | 1013.9 hPa | 0 mm | - | 0 W/m² | - |
| 1777814721 | 12.22° C | 45% | 1013.9 hPa | 0 mm | - | 0 W/m² | - |
| 1777806927 | 12.78° C | 38% | 1014.4 hPa | 0 mm | - | 0 W/m² | - |
| 1777806317 | 13.33° C | 38% | 1014.4 hPa | 0 mm | - | 0 W/m² | - |
| 1777796720 | 13.89° C | 39% | 1012.9 hPa | 0 mm | - | 0 W/m² | - |
| 1777776927 | 17.78° C | 73% | 1012.1 hPa | 0 mm | - | 60 W/m² | - |
| 1777770926 | 17.22° C | 47% | 1013.8 hPa | 0 mm | - | 8 W/m² | - |
| 1777769726 | 17.78° C | 41% | 1013.8 hPa | 0 mm | - | 8 W/m² | - |
| 1777769136 | 17.78° C | 39% | 1013.3 hPa | 0 mm | - | 14 W/m² | - |
| 1777767918 | 18.89° C | 33% | 1013.8 hPa | 0 mm | - | 6 W/m² | - |
* Rain latest hour (hover to see other rain measurements)
** Current wind speed in m/s (hover to see current wind gust speed)